Location: Asheville, NC
(35.6000°N, 82.5500°W)
Time: 10:04:59

XW-2D - Pass Details

Date: 16 March 2018
Orbit: 511 x 530 km, 97.5° (Epoch: 18 March)

Event Time Altitude Azimuth Distance (km) Brightness Sun altitude
Rises 06:42:48 0° 29° (NNE) 2,663 ? -12.3°
Reaches altitude 10° 06:45:22 10° 47° (NE) 1,772 ? -11.8°
Maximum altitude 06:48:13 20° 95° (E) 1,264 ? -11.3°
Drops below altitude 10° 06:51:03 10° 143° (SE) 1,766 ? -10.7°
Sets 06:53:35 0° 161° (SSE) 2,651 ? -10.2°
